Year,Month,Day,Hour,Minute,Value (Times are PST for windgust in km/hr)
2015,12,10,00,00,11.30
2015,12,10,00,07,22.50
2015,12,10,00,08,17.70
2015,12,10,00,09,16.10
2015,12,10,00,10,12.90
2015,12,10,00,11,24.20
2015,12,10,00,12,20.90
2015,12,10,00,13,14.50
2015,12,10,00,14,12.90
2015,12,10,00,15,25.70
2015,12,10,00,16,32.20
2015,12,10,00,17,20.90
2015,12,10,00,18,25.70
2015,12,10,00,19,17.70
2015,12,10,00,20,14.50
2015,12,10,00,21,16.10
2015,12,10,00,22,14.50
2015,12,10,00,23,11.30
2015,12,10,00,24,25.70
2015,12,10,00,25,19.30
2015,12,10,00,26,22.50
2015,12,10,00,27,16.10
2015,12,10,00,28,17.70
2015,12,10,00,29,16.10
2015,12,10,00,30,11.30
2015,12,10,00,31,25.70
2015,12,10,00,32,22.50
2015,12,10,00,33,16.10
2015,12,10,00,34,30.60
2015,12,10,00,35,19.30
2015,12,10,00,36,16.10
2015,12,10,00,37,19.30
2015,12,10,00,38,24.20
2015,12,10,00,39,17.70
2015,12,10,00,40,16.10
2015,12,10,00,41,30.60
2015,12,10,00,42,14.50
2015,12,10,00,43,14.50
2015,12,10,00,44,14.50
2015,12,10,00,45,11.30
2015,12,10,00,46,17.70
2015,12,10,00,47,19.30
2015,12,10,00,48,11.30
2015,12,10,00,49,24.20
2015,12,10,00,50,12.90
2015,12,10,00,51,8.10
2015,12,10,00,52,9.60
2015,12,10,00,53,17.70
2015,12,10,00,54,11.30
2015,12,10,00,55,14.50
2015,12,10,00,56,12.90
2015,12,10,00,57,11.30
2015,12,10,00,58,9.60
2015,12,10,00,59,16.10
2015,12,10,01,00,14.50
2015,12,10,01,01,19.30
2015,12,10,01,02,14.50
2015,12,10,01,03,19.30
2015,12,10,01,04,24.20
2015,12,10,01,05,14.50
2015,12,10,01,06,14.50
2015,12,10,01,07,12.90
2015,12,10,01,08,11.30
2015,12,10,01,09,11.30
2015,12,10,01,10,8.10
2015,12,10,01,11,14.50
2015,12,10,01,12,14.50
2015,12,10,01,13,14.50
2015,12,10,01,14,17.70
2015,12,10,01,15,16.10
2015,12,10,01,16,12.90
2015,12,10,01,17,16.10
2015,12,10,01,18,12.90
2015,12,10,01,19,11.30
2015,12,10,01,20,12.90
2015,12,10,01,21,14.50
2015,12,10,01,22,6.40
2015,12,10,01,23,12.90
2015,12,10,01,24,14.50
2015,12,10,01,25,6.40
2015,12,10,01,26,11.30
2015,12,10,01,27,12.90
2015,12,10,01,28,17.70
2015,12,10,01,29,11.30
2015,12,10,01,30,12.90
2015,12,10,01,31,14.50
2015,12,10,01,32,11.30
2015,12,10,01,33,11.30
2015,12,10,01,34,9.60
2015,12,10,01,35,14.50
2015,12,10,01,36,22.50
2015,12,10,01,37,16.10
2015,12,10,01,38,14.50
2015,12,10,01,39,14.50
2015,12,10,01,40,14.50
2015,12,10,01,41,9.60
2015,12,10,01,42,12.90
2015,12,10,01,43,9.60
2015,12,10,01,44,11.30
2015,12,10,01,45,4.80
2015,12,10,01,47,6.40
2015,12,10,01,48,8.10
2015,12,10,01,49,9.60
2015,12,10,01,50,8.10
2015,12,10,01,51,6.40
2015,12,10,01,52,9.60
2015,12,10,01,53,11.30
2015,12,10,01,54,11.30
2015,12,10,01,55,9.60
2015,12,10,01,57,6.40
2015,12,10,01,58,3.20
2015,12,10,02,00,3.20
2015,12,10,02,01,3.20
2015,12,10,02,02,1.60
2015,12,10,02,03,8.10
2015,12,10,02,05,6.40
2015,12,10,02,06,6.40
2015,12,10,02,07,6.40
2015,12,10,02,08,9.60
2015,12,10,02,09,6.40
2015,12,10,02,10,3.20
2015,12,10,02,11,6.40
2015,12,10,02,12,9.60
2015,12,10,02,13,8.10
2015,12,10,02,14,8.10
2015,12,10,02,15,11.30
2015,12,10,02,16,20.90
2015,12,10,02,17,12.90
2015,12,10,02,18,12.90
2015,12,10,02,19,9.60
2015,12,10,02,20,8.10
2015,12,10,02,21,11.30
2015,12,10,02,22,11.30
2015,12,10,02,23,9.60
2015,12,10,02,24,8.10
2015,12,10,02,26,9.60
2015,12,10,02,27,3.20
2015,12,10,02,28,3.20
2015,12,10,02,29,8.10
2015,12,10,02,31,16.10
2015,12,10,02,32,9.60
2015,12,10,02,33,3.20
2015,12,10,02,34,6.40
2015,12,10,02,35,4.80
2015,12,10,02,36,6.40
2015,12,10,02,37,3.20
2015,12,10,02,38,8.10
2015,12,10,02,39,9.60
2015,12,10,02,40,9.60
2015,12,10,02,41,6.40
2015,12,10,02,42,9.60
2015,12,10,02,43,9.60
2015,12,10,02,44,9.60
2015,12,10,02,45,9.60
2015,12,10,02,46,8.10
2015,12,10,02,47,11.30
2015,12,10,02,48,9.60
2015,12,10,02,49,9.60
2015,12,10,02,50,3.20
2015,12,10,02,53,8.10
2015,12,10,02,54,3.20
2015,12,10,02,55,1.60
2015,12,10,03,00,1.60
2015,12,10,03,01,3.20
2015,12,10,03,02,9.60
2015,12,10,03,03,9.60
2015,12,10,03,06,6.40
2015,12,10,03,07,3.20
2015,12,10,03,08,1.60
2015,12,10,03,09,6.40
2015,12,10,03,10,3.20
2015,12,10,03,11,4.80
2015,12,10,03,12,8.10
2015,12,10,03,13,11.30
2015,12,10,03,14,11.30
2015,12,10,03,15,6.40
2015,12,10,03,16,6.40
2015,12,10,03,17,12.90
2015,12,10,03,18,6.40
2015,12,10,03,19,1.60
2015,12,10,03,20,9.60
2015,12,10,03,21,4.80
2015,12,10,03,22,1.60
2015,12,10,03,23,6.40
2015,12,10,03,24,6.40
2015,12,10,03,25,6.40
2015,12,10,03,26,6.40
2015,12,10,03,27,4.80
2015,12,10,03,28,12.90
2015,12,10,03,29,12.90
2015,12,10,03,30,3.20
2015,12,10,03,31,11.30
2015,12,10,03,32,8.10
2015,12,10,03,34,3.20
2015,12,10,03,35,3.20
2015,12,10,03,37,1.60
2015,12,10,03,40,8.10
2015,12,10,03,41,6.40
2015,12,10,03,45,1.60
2015,12,10,03,47,1.60
2015,12,10,03,48,8.10
2015,12,10,03,49,9.60
2015,12,10,03,50,8.10
2015,12,10,03,51,8.10
2015,12,10,03,52,8.10
2015,12,10,03,53,6.40
2015,12,10,03,54,1.60
2015,12,10,03,55,1.60
2015,12,10,03,58,12.90
2015,12,10,03,59,8.10
2015,12,10,04,00,8.10
2015,12,10,04,01,9.60
2015,12,10,04,02,14.50
2015,12,10,04,03,11.30
2015,12,10,04,04,12.90
2015,12,10,04,05,22.50
2015,12,10,04,06,12.90
2015,12,10,04,07,14.50
2015,12,10,04,08,20.90
2015,12,10,04,09,9.60
2015,12,10,04,10,12.90
2015,12,10,04,11,17.70
2015,12,10,04,12,12.90
2015,12,10,04,13,19.30
2015,12,10,04,14,19.30
2015,12,10,04,15,33.80
2015,12,10,04,16,22.50
2015,12,10,04,17,29.00
2015,12,10,04,18,25.70
2015,12,10,04,19,29.00
2015,12,10,04,20,20.90
2015,12,10,04,21,20.90
2015,12,10,04,22,20.90
2015,12,10,04,23,25.70
2015,12,10,04,24,30.60
2015,12,10,04,25,32.20
2015,12,10,04,26,17.70
2015,12,10,04,27,29.00
2015,12,10,04,28,30.60
2015,12,10,04,29,14.50
2015,12,10,04,30,19.30
2015,12,10,04,31,22.50
2015,12,10,04,32,17.70
2015,12,10,04,33,33.80
2015,12,10,04,34,29.00
2015,12,10,04,35,20.90
2015,12,10,04,36,14.50
2015,12,10,04,37,19.30
2015,12,10,04,38,32.20
2015,12,10,04,39,16.10
2015,12,10,04,40,12.90
2015,12,10,04,41,14.50
2015,12,10,04,42,17.70
2015,12,10,04,43,19.30
2015,12,10,04,44,17.70
2015,12,10,04,45,22.50
2015,12,10,04,46,17.70
2015,12,10,04,47,17.70
2015,12,10,04,48,33.80
2015,12,10,04,49,19.30
2015,12,10,04,50,25.70
2015,12,10,04,51,20.90
2015,12,10,04,52,19.30
2015,12,10,04,53,16.10
2015,12,10,04,54,16.10
2015,12,10,04,55,14.50
2015,12,10,04,56,16.10
2015,12,10,04,57,30.60
2015,12,10,04,58,22.50
2015,12,10,04,59,19.30
2015,12,10,05,00,9.60
2015,12,10,05,01,19.30
2015,12,10,05,02,22.50
2015,12,10,05,03,25.70
2015,12,10,05,04,14.50
2015,12,10,05,05,37.00
2015,12,10,05,06,35.40
2015,12,10,05,07,17.70
2015,12,10,05,08,14.50
2015,12,10,05,09,22.50
2015,12,10,05,10,20.90
2015,12,10,05,11,20.90
2015,12,10,05,12,14.50
2015,12,10,05,13,9.60
2015,12,10,05,14,16.10
2015,12,10,05,15,29.00
2015,12,10,05,16,20.90
2015,12,10,05,17,25.70
2015,12,10,05,18,19.30
2015,12,10,05,19,16.10
2015,12,10,05,20,16.10
2015,12,10,05,21,19.30
2015,12,10,05,22,16.10
2015,12,10,05,23,22.50
2015,12,10,05,24,22.50
2015,12,10,05,25,14.50
2015,12,10,05,26,22.50
2015,12,10,05,27,33.80
2015,12,10,05,28,20.90
2015,12,10,05,29,12.90
2015,12,10,05,30,20.90
2015,12,10,05,31,12.90
2015,12,10,05,32,14.50
2015,12,10,05,33,14.50
2015,12,10,05,34,12.90
2015,12,10,05,35,14.50
2015,12,10,05,36,19.30
2015,12,10,05,37,16.10
2015,12,10,05,38,9.60
2015,12,10,05,39,17.70
2015,12,10,05,40,19.30
2015,12,10,05,41,14.50
2015,12,10,05,42,14.50
2015,12,10,05,43,22.50
2015,12,10,05,44,12.90
2015,12,10,05,45,14.50
2015,12,10,05,46,16.10
2015,12,10,05,47,22.50
2015,12,10,05,48,16.10
2015,12,10,05,49,9.60
2015,12,10,05,50,24.20
2015,12,10,05,51,16.10
2015,12,10,05,52,19.30
2015,12,10,05,53,9.60
2015,12,10,05,54,16.10
2015,12,10,05,55,14.50
2015,12,10,05,56,22.50
2015,12,10,05,57,22.50
2015,12,10,05,58,14.50
2015,12,10,05,59,14.50
2015,12,10,06,00,20.90
2015,12,10,06,01,19.30
2015,12,10,06,02,24.20
2015,12,10,06,03,16.10
2015,12,10,06,04,14.50
2015,12,10,06,05,14.50
2015,12,10,06,06,6.40
2015,12,10,06,07,22.50
2015,12,10,06,08,19.30
2015,12,10,06,09,11.30
2015,12,10,06,10,8.10
2015,12,10,06,11,11.30
2015,12,10,06,12,20.90
2015,12,10,06,13,12.90
2015,12,10,06,14,9.60
2015,12,10,06,15,25.70
2015,12,10,06,16,16.10
2015,12,10,06,17,20.90
2015,12,10,06,18,9.60
2015,12,10,06,19,16.10
2015,12,10,06,20,17.70
2015,12,10,06,21,16.10
2015,12,10,06,22,24.20
2015,12,10,06,23,29.00
2015,12,10,06,24,16.10
2015,12,10,06,25,25.70
2015,12,10,06,26,20.90
2015,12,10,06,27,22.50
2015,12,10,06,28,14.50
2015,12,10,06,29,14.50
2015,12,10,06,30,24.20
2015,12,10,06,31,24.20
2015,12,10,06,32,19.30
2015,12,10,06,33,30.60
2015,12,10,06,34,19.30
2015,12,10,06,35,29.00
2015,12,10,06,36,22.50
2015,12,10,06,37,17.70
2015,12,10,06,38,22.50
2015,12,10,06,39,19.30
2015,12,10,06,40,20.90
2015,12,10,06,41,35.40
2015,12,10,06,42,20.90
2015,12,10,06,43,40.20
2015,12,10,06,44,35.40
2015,12,10,06,45,38.60
2015,12,10,06,46,32.20
2015,12,10,06,47,32.20
2015,12,10,06,48,19.30
2015,12,10,06,49,38.60
2015,12,10,06,50,25.70
2015,12,10,06,51,29.00
2015,12,10,06,52,32.20
2015,12,10,06,53,25.70
2015,12,10,06,54,17.70
2015,12,10,06,55,35.40
2015,12,10,06,56,20.90
2015,12,10,06,57,20.90
2015,12,10,06,58,29.00
2015,12,10,06,59,38.60
2015,12,10,07,00,40.20
2015,12,10,07,01,33.80
2015,12,10,07,02,24.20
2015,12,10,07,03,12.90
2015,12,10,07,04,25.70
2015,12,10,07,05,20.90
2015,12,10,07,06,24.20
2015,12,10,07,07,25.70
2015,12,10,07,08,35.40
2015,12,10,07,09,24.20
2015,12,10,07,10,41.80
2015,12,10,07,11,22.50
2015,12,10,07,12,40.20
2015,12,10,07,13,35.40
2015,12,10,07,14,37.00
2015,12,10,07,15,38.60
2015,12,10,07,16,29.00
2015,12,10,07,17,45.10
2015,12,10,07,18,22.50
2015,12,10,07,19,38.60
2015,12,10,07,20,29.00
2015,12,10,07,21,49.90
2015,12,10,07,22,33.80
2015,12,10,07,23,46.70
2015,12,10,07,24,38.60
2015,12,10,07,25,56.30
2015,12,10,07,26,33.80
2015,12,10,07,27,41.80
2015,12,10,07,28,49.90
2015,12,10,07,29,53.10
2015,12,10,07,30,38.60
2015,12,10,07,31,40.20
2015,12,10,07,32,32.20
2015,12,10,07,33,37.00
2015,12,10,07,34,46.70
2015,12,10,07,35,41.80
2015,12,10,07,36,29.00
2015,12,10,07,37,35.40
2015,12,10,07,38,37.00
2015,12,10,07,39,49.90
2015,12,10,07,40,45.10
2015,12,10,07,41,56.30
2015,12,10,07,42,37.00
2015,12,10,07,43,43.50
2015,12,10,07,44,51.50
2015,12,10,07,45,54.70
2015,12,10,07,46,41.80
2015,12,10,07,47,38.60
2015,12,10,07,48,56.30
2015,12,10,07,49,43.50
2015,12,10,07,50,61.20
2015,12,10,07,51,32.20
2015,12,10,07,52,40.20
2015,12,10,07,53,37.00
2015,12,10,07,54,48.30
2015,12,10,07,55,38.60
2015,12,10,07,56,43.50
2015,12,10,07,57,38.60
2015,12,10,07,58,32.20
2015,12,10,07,59,33.80
2015,12,10,08,00,46.70
2015,12,10,08,01,29.00
2015,12,10,08,02,17.70
2015,12,10,08,03,43.50
2015,12,10,08,04,29.00
2015,12,10,08,05,35.40
2015,12,10,08,06,32.20
2015,12,10,08,07,38.60
2015,12,10,08,08,25.70
2015,12,10,08,09,41.80
2015,12,10,08,10,38.60
2015,12,10,08,11,32.20
2015,12,10,08,12,40.20
2015,12,10,08,13,33.80
2015,12,10,08,14,29.00
2015,12,10,08,15,30.60
2015,12,10,08,16,29.00
2015,12,10,08,17,22.50
2015,12,10,08,18,22.50
2015,12,10,08,19,17.70
2015,12,10,08,20,30.60
2015,12,10,08,21,40.20
2015,12,10,08,22,37.00
2015,12,10,08,23,48.30
2015,12,10,08,24,33.80
2015,12,10,08,25,33.80
2015,12,10,08,26,25.70
2015,12,10,08,27,33.80
2015,12,10,08,28,30.60
2015,12,10,08,29,35.40
2015,12,10,08,30,35.40
2015,12,10,08,31,37.00
2015,12,10,08,32,35.40
2015,12,10,08,33,46.70
2015,12,10,08,34,33.80
2015,12,10,08,35,35.40
2015,12,10,08,36,38.60
2015,12,10,08,37,33.80
2015,12,10,08,38,37.00
2015,12,10,08,39,45.10
2015,12,10,08,40,45.10
2015,12,10,08,41,38.60
2015,12,10,08,42,25.70
2015,12,10,08,43,29.00
2015,12,10,08,44,49.90
2015,12,10,08,45,40.20
2015,12,10,08,46,29.00
2015,12,10,08,47,41.80
2015,12,10,08,48,30.60
2015,12,10,08,49,43.50
2015,12,10,08,50,29.00
2015,12,10,08,51,46.70
2015,12,10,08,52,32.20
2015,12,10,08,53,48.30
2015,12,10,08,54,25.70
2015,12,10,08,55,38.60
2015,12,10,08,56,41.80
2015,12,10,08,57,38.60
2015,12,10,08,58,30.60
2015,12,10,08,59,30.60
2015,12,10,09,00,20.90
2015,12,10,09,01,30.60
2015,12,10,09,02,32.20
2015,12,10,09,03,45.10
2015,12,10,09,04,40.20
2015,12,10,09,05,35.40
2015,12,10,09,06,32.20
2015,12,10,09,07,35.40
2015,12,10,09,08,38.60
2015,12,10,09,09,48.30
2015,12,10,09,10,32.20
2015,12,10,09,11,35.40
2015,12,10,09,12,25.70
2015,12,10,09,13,29.00
2015,12,10,09,14,25.70
2015,12,10,09,15,30.60
2015,12,10,09,16,33.80
2015,12,10,09,17,33.80
2015,12,10,09,18,30.60
2015,12,10,09,19,33.80
2015,12,10,09,20,25.70
2015,12,10,09,21,32.20
2015,12,10,09,22,37.00
2015,12,10,09,23,24.20
2015,12,10,09,24,17.70
2015,12,10,09,25,14.50
2015,12,10,09,26,41.80
2015,12,10,09,27,35.40
2015,12,10,09,28,30.60
2015,12,10,09,29,25.70
2015,12,10,09,30,41.80
2015,12,10,09,31,30.60
2015,12,10,09,32,22.50
2015,12,10,09,33,37.00
2015,12,10,09,34,37.00
2015,12,10,09,35,33.80
2015,12,10,09,36,25.70
2015,12,10,09,37,35.40
2015,12,10,09,38,33.80
2015,12,10,09,39,37.00
2015,12,10,09,40,37.00
2015,12,10,09,41,33.80
2015,12,10,09,42,19.30
2015,12,10,09,43,35.40
2015,12,10,09,44,29.00
2015,12,10,09,45,33.80
2015,12,10,09,46,30.60
2015,12,10,09,47,35.40
2015,12,10,09,48,25.70
2015,12,10,09,49,32.20
2015,12,10,09,50,41.80
2015,12,10,09,51,38.60
2015,12,10,09,52,22.50
2015,12,10,09,53,16.10
2015,12,10,10,51,37.00
2015,12,10,10,52,29.00
2015,12,10,10,53,25.70
2015,12,10,10,54,25.70
2015,12,10,10,55,35.40
2015,12,10,10,56,35.40
2015,12,10,10,57,20.90
2015,12,10,10,58,35.40
2015,12,10,10,59,20.90
2015,12,10,11,00,41.80
2015,12,10,11,01,33.80
2015,12,10,11,02,32.20
2015,12,10,11,03,41.80
2015,12,10,11,04,22.50
2015,12,10,11,05,33.80
2015,12,10,11,06,30.60
2015,12,10,11,07,30.60
2015,12,10,11,08,33.80
2015,12,10,11,09,41.80
2015,12,10,11,10,29.00
2015,12,10,11,11,32.20
2015,12,10,11,12,22.50
2015,12,10,11,13,17.70
2015,12,10,11,14,25.70
2015,12,10,11,15,35.40
2015,12,10,11,16,16.10
2015,12,10,11,17,38.60
2015,12,10,11,18,25.70
2015,12,10,11,19,37.00
2015,12,10,11,20,30.60
2015,12,10,11,21,22.50
2015,12,10,11,22,24.20
2015,12,10,11,23,30.60
2015,12,10,11,24,14.50
2015,12,10,11,25,32.20
2015,12,10,11,26,32.20
2015,12,10,11,27,30.60
2015,12,10,11,28,22.50
2015,12,10,11,29,33.80
2015,12,10,11,30,24.20
2015,12,10,11,31,25.70
2015,12,10,11,32,24.20
2015,12,10,11,33,22.50
2015,12,10,11,34,25.70
2015,12,10,11,35,20.90
2015,12,10,11,36,30.60
2015,12,10,11,37,22.50
2015,12,10,11,38,25.70
2015,12,10,11,39,19.30
2015,12,10,11,40,25.70
2015,12,10,11,41,25.70
2015,12,10,11,42,32.20
2015,12,10,11,43,17.70
2015,12,10,11,44,17.70
2015,12,10,11,45,12.90
2015,12,10,11,46,11.30
2015,12,10,11,47,14.50
2015,12,10,11,48,22.50
2015,12,10,11,49,20.90
2015,12,10,11,50,11.30
2015,12,10,11,51,16.10
2015,12,10,11,52,20.90
2015,12,10,11,53,20.90
2015,12,10,11,54,17.70
2015,12,10,11,55,24.20
2015,12,10,11,56,14.50
2015,12,10,11,57,22.50
2015,12,10,11,58,16.10
2015,12,10,11,59,19.30
2015,12,10,12,00,22.50
2015,12,10,12,01,24.20
2015,12,10,12,02,17.70
2015,12,10,12,03,43.50
2015,12,10,12,04,19.30
2015,12,10,12,05,19.30
2015,12,10,12,06,12.90
2015,12,10,12,07,11.30
2015,12,10,12,08,20.90
2015,12,10,12,09,12.90
2015,12,10,12,10,19.30
2015,12,10,12,11,16.10
2015,12,10,12,12,17.70
2015,12,10,12,13,20.90
2015,12,10,12,14,16.10
2015,12,10,12,15,22.50
2015,12,10,12,16,14.50
2015,12,10,12,17,16.10
2015,12,10,12,18,16.10
2015,12,10,12,19,19.30
2015,12,10,12,20,22.50
2015,12,10,12,21,25.70
2015,12,10,12,22,24.20
2015,12,10,12,23,16.10
2015,12,10,12,24,25.70
2015,12,10,12,25,24.20
2015,12,10,12,26,22.50
2015,12,10,12,27,25.70
2015,12,10,12,28,20.90
2015,12,10,12,29,22.50
2015,12,10,12,30,14.50
2015,12,10,12,31,14.50
2015,12,10,12,32,25.70
2015,12,10,12,33,25.70
2015,12,10,12,34,20.90
2015,12,10,12,35,20.90
2015,12,10,12,36,11.30
2015,12,10,12,37,25.70
2015,12,10,12,38,16.10
2015,12,10,12,39,12.90
2015,12,10,12,40,14.50
2015,12,10,12,41,29.00
2015,12,10,12,42,19.30
2015,12,10,12,43,14.50
2015,12,10,12,44,24.20
2015,12,10,12,45,20.90
2015,12,10,12,46,12.90
2015,12,10,12,47,22.50
2015,12,10,12,48,16.10
2015,12,10,12,49,14.50
2015,12,10,12,50,14.50
2015,12,10,12,51,30.60
2015,12,10,12,52,22.50
2015,12,10,12,53,19.30
2015,12,10,12,54,22.50
2015,12,10,12,55,16.10
2015,12,10,12,56,19.30
2015,12,10,12,57,20.90
2015,12,10,12,58,20.90
2015,12,10,12,59,17.70
2015,12,10,13,00,19.30
2015,12,10,13,01,14.50
2015,12,10,13,02,12.90
2015,12,10,13,03,12.90
2015,12,10,13,04,9.60
2015,12,10,13,05,24.20
2015,12,10,13,06,19.30
2015,12,10,13,07,11.30
2015,12,10,13,08,19.30
2015,12,10,13,09,17.70
2015,12,10,13,10,16.10
2015,12,10,13,11,24.20
2015,12,10,13,12,20.90
2015,12,10,13,13,12.90
2015,12,10,13,14,22.50
2015,12,10,13,15,12.90
2015,12,10,13,16,16.10
2015,12,10,13,17,16.10
2015,12,10,13,18,17.70
2015,12,10,13,19,22.50
2015,12,10,13,20,30.60
2015,12,10,13,21,17.70
2015,12,10,13,22,11.30
2015,12,10,13,23,12.90
2015,12,10,13,24,3.20
2015,12,10,13,25,11.30
2015,12,10,13,26,25.70
2015,12,10,13,27,20.90
2015,12,10,13,28,12.90
2015,12,10,13,29,17.70
2015,12,10,13,30,12.90
2015,12,10,13,31,16.10
2015,12,10,13,32,12.90
2015,12,10,13,33,11.30
2015,12,10,13,34,6.40
2015,12,10,13,35,9.60
2015,12,10,13,36,11.30
2015,12,10,13,37,9.60
2015,12,10,13,38,8.10
2015,12,10,13,39,19.30
2015,12,10,13,40,19.30
2015,12,10,13,41,16.10
2015,12,10,13,42,11.30
2015,12,10,13,43,19.30
2015,12,10,13,44,20.90
2015,12,10,13,45,16.10
2015,12,10,13,46,19.30
2015,12,10,13,47,17.70
2015,12,10,13,48,16.10
2015,12,10,13,49,29.00
2015,12,10,13,50,30.60
2015,12,10,13,51,37.00
2015,12,10,13,52,29.00
2015,12,10,13,53,24.20
2015,12,10,13,54,38.60
2015,12,10,13,55,25.70
2015,12,10,13,56,20.90
2015,12,10,13,57,32.20
2015,12,10,13,58,19.30
2015,12,10,13,59,19.30
2015,12,10,14,00,22.50
2015,12,10,14,01,16.10
2015,12,10,14,02,16.10
2015,12,10,14,03,11.30
2015,12,10,14,04,9.60
2015,12,10,14,05,25.70
2015,12,10,14,06,17.70
2015,12,10,14,07,14.50
2015,12,10,14,08,14.50
2015,12,10,14,09,29.00
2015,12,10,14,10,35.40
2015,12,10,14,11,32.20
2015,12,10,14,12,30.60
2015,12,10,14,13,22.50
2015,12,10,14,14,24.20
2015,12,10,14,15,25.70
2015,12,10,14,16,33.80
2015,12,10,14,17,32.20
2015,12,10,14,18,32.20
2015,12,10,14,19,24.20
2015,12,10,14,20,32.20
2015,12,10,14,21,38.60
2015,12,10,14,22,9.60
2015,12,10,14,23,19.30
2015,12,10,14,24,20.90
2015,12,10,14,25,14.50
2015,12,10,14,26,37.00
2015,12,10,14,27,33.80
2015,12,10,14,28,24.20
2015,12,10,14,29,20.90
2015,12,10,14,30,20.90
2015,12,10,14,31,45.10
2015,12,10,14,32,35.40
2015,12,10,14,33,25.70
2015,12,10,14,34,45.10
2015,12,10,14,35,33.80
2015,12,10,14,36,40.20
2015,12,10,14,37,16.10
2015,12,10,14,38,24.20
2015,12,10,14,39,41.80
2015,12,10,14,40,46.70
2015,12,10,14,41,35.40
2015,12,10,14,42,53.10
2015,12,10,14,43,35.40
2015,12,10,14,44,33.80
2015,12,10,14,45,17.70
2015,12,10,14,46,19.30
2015,12,10,14,47,41.80
2015,12,10,14,48,32.20
2015,12,10,14,49,53.10
2015,12,10,14,50,33.80
2015,12,10,14,51,38.60
2015,12,10,14,52,38.60
2015,12,10,14,53,38.60
2015,12,10,14,54,29.00
2015,12,10,14,55,17.70
2015,12,10,14,56,20.90
2015,12,10,14,57,24.20
2015,12,10,14,58,19.30
2015,12,10,14,59,48.30
2015,12,10,15,00,49.90
2015,12,10,15,01,49.90
2015,12,10,15,02,46.70
2015,12,10,15,03,30.60
2015,12,10,15,04,51.50
2015,12,10,15,05,43.50
2015,12,10,15,06,37.00
2015,12,10,15,07,32.20
2015,12,10,15,08,32.20
2015,12,10,15,09,41.80
2015,12,10,15,10,43.50
2015,12,10,15,11,43.50
2015,12,10,15,12,48.30
2015,12,10,15,13,43.50
2015,12,10,15,14,30.60
2015,12,10,15,15,33.80
2015,12,10,15,16,74.00
2015,12,10,15,17,35.40
2015,12,10,15,18,41.80
2015,12,10,15,19,24.20
2015,12,10,15,20,22.50
2015,12,10,15,21,30.60
2015,12,10,15,22,33.80
2015,12,10,15,23,24.20
2015,12,10,15,24,30.60
2015,12,10,15,25,29.00
2015,12,10,15,26,12.90
2015,12,10,15,27,14.50
2015,12,10,15,28,19.30
2015,12,10,15,29,40.20
2015,12,10,15,30,17.70
2015,12,10,15,31,32.20
2015,12,10,15,32,48.30
2015,12,10,15,33,40.20
2015,12,10,15,34,53.10
2015,12,10,15,35,35.40
2015,12,10,15,36,43.50
2015,12,10,15,37,29.00
2015,12,10,15,38,30.60
2015,12,10,15,39,24.20
2015,12,10,15,40,30.60
2015,12,10,15,41,35.40
2015,12,10,15,42,24.20
2015,12,10,15,43,29.00
2015,12,10,15,44,19.30
2015,12,10,15,45,22.50
2015,12,10,15,46,37.00
2015,12,10,15,47,25.70
2015,12,10,15,48,20.90
2015,12,10,15,49,22.50
2015,12,10,15,50,33.80
2015,12,10,15,51,24.20
2015,12,10,15,52,29.00
2015,12,10,15,53,25.70
2015,12,10,15,54,14.50
2015,12,10,15,55,25.70
2015,12,10,15,56,22.50
2015,12,10,15,57,29.00
2015,12,10,15,58,22.50
2015,12,10,15,59,16.10
2015,12,10,16,00,25.70
2015,12,10,16,01,25.70
2015,12,10,16,02,14.50
2015,12,10,16,03,16.10
2015,12,10,16,04,16.10
2015,12,10,16,05,9.60
2015,12,10,16,06,22.50
2015,12,10,16,07,24.20
2015,12,10,16,08,20.90
2015,12,10,16,09,19.30
2015,12,10,16,10,22.50
2015,12,10,16,11,22.50
2015,12,10,16,12,24.20
2015,12,10,16,13,22.50
2015,12,10,16,14,16.10
2015,12,10,16,15,19.30
2015,12,10,16,16,22.50
2015,12,10,16,17,22.50
2015,12,10,16,18,16.10
2015,12,10,16,19,22.50
2015,12,10,16,20,17.70
2015,12,10,16,21,19.30
2015,12,10,16,22,9.60
2015,12,10,16,23,12.90
2015,12,10,16,24,22.50
2015,12,10,16,25,32.20
2015,12,10,16,26,20.90
2015,12,10,16,27,35.40
2015,12,10,16,28,35.40
2015,12,10,16,29,17.70
2015,12,10,16,30,11.30
2015,12,10,16,31,9.60
2015,12,10,16,32,17.70
2015,12,10,16,33,19.30
2015,12,10,16,34,14.50
2015,12,10,16,35,11.30
2015,12,10,16,36,20.90
2015,12,10,16,37,20.90
2015,12,10,16,38,19.30
2015,12,10,16,39,29.00
2015,12,10,16,40,22.50
2015,12,10,16,41,20.90
2015,12,10,16,42,16.10
2015,12,10,16,43,24.20
2015,12,10,16,44,24.20
2015,12,10,16,45,16.10
2015,12,10,16,46,29.00
2015,12,10,16,47,30.60
2015,12,10,16,48,22.50
2015,12,10,16,49,17.70
2015,12,10,16,50,30.60
2015,12,10,16,51,32.20
2015,12,10,16,52,33.80
2015,12,10,16,53,20.90
2015,12,10,16,54,20.90
2015,12,10,16,55,20.90
2015,12,10,16,56,12.90
2015,12,10,16,57,14.50
2015,12,10,16,58,11.30
2015,12,10,16,59,14.50
2015,12,10,17,00,8.10
2015,12,10,17,01,11.30
2015,12,10,17,02,12.90
2015,12,10,17,03,12.90
2015,12,10,17,04,17.70
2015,12,10,17,05,25.70
2015,12,10,17,06,9.60
2015,12,10,17,07,11.30
2015,12,10,17,08,14.50
2015,12,10,17,09,9.60
2015,12,10,17,10,3.20
2015,12,10,17,14,4.80
2015,12,10,17,15,3.20
2015,12,10,17,18,3.20
2015,12,10,17,19,3.20
2015,12,10,17,20,4.80
2015,12,10,17,21,3.20
2015,12,10,17,22,1.60
2015,12,10,17,24,3.20
2015,12,10,17,25,8.10
2015,12,10,17,26,8.10
2015,12,10,17,27,14.50
2015,12,10,17,28,11.30
2015,12,10,17,29,3.20
2015,12,10,17,30,8.10
2015,12,10,17,31,8.10
2015,12,10,17,33,3.20
2015,12,10,17,34,1.60
2015,12,10,17,36,8.10
2015,12,10,17,37,8.10
2015,12,10,17,38,6.40
2015,12,10,17,41,3.20
2015,12,10,17,43,1.60
2015,12,10,17,44,6.40
2015,12,10,17,45,1.60
2015,12,10,17,46,4.80
2015,12,10,17,47,1.60
2015,12,10,17,48,1.60
2015,12,10,17,49,3.20
2015,12,10,17,50,3.20
2015,12,10,17,51,6.40
2015,12,10,17,52,8.10
2015,12,10,17,53,9.60
2015,12,10,17,54,8.10
2015,12,10,17,55,16.10
2015,12,10,17,56,17.70
2015,12,10,17,57,6.40
2015,12,10,17,59,4.80
2015,12,10,18,00,8.10
2015,12,10,18,01,3.20
2015,12,10,18,02,24.20
2015,12,10,18,03,11.30
2015,12,10,18,04,9.60
2015,12,10,18,06,6.40
2015,12,10,18,07,9.60
2015,12,10,18,08,6.40
2015,12,10,18,09,3.20
2015,12,10,18,10,9.60
2015,12,10,18,11,11.30
2015,12,10,18,12,8.10
2015,12,10,18,13,1.60
2015,12,10,18,14,6.40
2015,12,10,18,15,8.10
2015,12,10,18,16,8.10
2015,12,10,18,17,8.10
2015,12,10,18,18,8.10
2015,12,10,18,19,8.10
2015,12,10,18,20,3.20
2015,12,10,18,21,4.80
2015,12,10,18,22,3.20
2015,12,10,18,24,1.60
2015,12,10,18,25,20.90
2015,12,10,18,26,19.30
2015,12,10,18,27,11.30
2015,12,10,18,28,12.90
2015,12,10,18,29,8.10
2015,12,10,18,30,6.40
2015,12,10,18,31,8.10
2015,12,10,18,32,12.90
2015,12,10,18,33,6.40
2015,12,10,18,34,8.10
2015,12,10,18,35,6.40
2015,12,10,18,36,8.10
2015,12,10,18,37,11.30
2015,12,10,18,38,11.30
2015,12,10,18,39,12.90
2015,12,10,18,40,8.10
2015,12,10,18,41,8.10
2015,12,10,18,42,4.80
2015,12,10,18,43,3.20
2015,12,10,18,44,1.60
2015,12,10,18,45,3.20
2015,12,10,18,46,3.20
2015,12,10,18,47,14.50
2015,12,10,18,48,9.60
2015,12,10,18,49,12.90
2015,12,10,18,50,8.10
2015,12,10,18,51,1.60
2015,12,10,19,03,1.60
2015,12,10,19,04,4.80
2015,12,10,19,07,1.60
2015,12,10,19,11,4.80
2015,12,10,19,12,6.40
2015,12,10,19,13,6.40
2015,12,10,19,14,6.40
2015,12,10,19,15,3.20
2015,12,10,19,16,6.40
2015,12,10,19,17,9.60
2015,12,10,19,18,8.10
2015,12,10,19,19,8.10
2015,12,10,19,20,11.30
2015,12,10,19,21,9.60
2015,12,10,19,22,17.70
2015,12,10,19,23,11.30
2015,12,10,19,24,8.10
2015,12,10,19,25,9.60